Flag for Germany Weather past 2 weeks in Gronau (Westfalen), North Rhine-Westphalia, Germany

Now
70 °F

Scattered clouds.


Feels Like: 77 °F
Forecast: 50 / 73 °F
Wind: 3 mph from Northeast

Location: Twenthe


UV Index: 3 (Moderate)

Visibility: 9 mi


Pressure: 30.07 "Hg

Humidity: 51%

Dew point: 51 °F

Location of Gronau (Westfalen)Location

Historic Weather in Gronau (Westfalen)

°F

Gronau (Westfalen) temperature yesterday

Maximum temperature yesterday: 67 °F (at 5:00 PM)
Minimum temperature yesterday: 45 °F (at 12:00 AM)
Average temperature yesterday: 55 °F

Past Weeks' High & Low Weather Summary

 TemperatureHumidityPressure
High69 °F (Apr 24, 2:00 PM)100% (Apr 24, 2:00 AM)30.47 "Hg (Apr 24, 2:00 AM)
Low28 °F (Apr 16, 7:00 AM)31% (Apr 16, 4:00 PM)29.67 "Hg (Apr 21, 5:00 PM)
Average51 °F72%30.05 "Hg
* Reported Apr 9 2:00 PM — Apr 24 2:00 PM, Gronau (Westfalen), Weather by CustomWeather, © 2014

Note: Actual official high and low records may vary slightly from our data, if they occured in-between our weather recording intervals... More about our weather records

Advertising

Historic Weather Conditions — Data for Previous 24 hours

 ConditionsComfort  
Time TempWeatherWind HumidityBarometerVisibility
2:00 PM
Apr 24
69 °FSunny.3 mph52%30.09 "Hg7 mi
1:00 PM67 °FSunny.3 mph66%30.10 "Hg6 mi
12:00 PM65 °FPassing clouds.5 mph68%30.11 "Hg6 mi
11:00 AM62 °FOvercast.3 mph72%30.12 "Hg4 mi
10:00 AM59 °FPartly sunny.N/A75%30.13 "Hg7 mi
9:00 AM58 °FScattered clouds.2 mph77%30.12 "Hg7 mi
8:00 AM51 °FPassing clouds.1 mph95%30.12 "Hg2 mi
7:00 AM44 °FPartly sunny.1 mph99%30.11 "Hg1 mi
6:00 AM43 °FPassing clouds.1 mph99%30.11 "Hg0 mi
5:00 AM44 °FPassing clouds.No wind100%30.11 "Hg0 mi
4:00 AM46 °FPassing clouds.2 mph99%30.11 "Hg0 mi
3:00 AM46 °FPassing clouds.1 mph98%30.12 "Hg1 mi
2:00 AM44 °FFog.No wind100%30.12 "Hg1 mi
1:00 AM46 °FClear.3 mph96%30.12 "Hg7 mi
12:00 AM47 °FClear.1 mph96%30.12 "Hg7 mi
11:00 PM
Apr 23
48 °FPassing clouds.N/A88%30.13 "Hg11 mi
10:00 PM49 °FPassing clouds.No wind93%30.13 "Hg17 mi
9:00 PM52 °FClear.1 mph85%30.11 "Hg28 mi
8:00 PM57 °FSunny.1 mph75%30.09 "Hg28 mi
7:00 PM64 °FSunny.2 mph54%30.09 "Hg28 mi
6:00 PM66 °FOvercast.N/A51%30.08 "Hg9 mi
5:00 PM67 °FPartly sunny.2 mph48%30.09 "Hg10 mi
4:00 PM67 °FOvercast.1 mph49%30.09 "Hg9 mi
3:00 PM66 °FLight rain. Partly sunny.2 mph50%30.10 "Hg8 mi
Weather by CustomWeather, © 2014

See weather overview